Weather in Hengshui

China     37°42′54″N   115°38′47″E
temp.,
°C
wind,
m/s
gust,
m/s
humid.,
%
clouds,
%
prec.,
mm/h
press.,
hPa
HPBL,
m
23 january, sat
sat2323:00−2ene2369100 0.0 102691
02:00−3e2273100 0.0 102528
05:00−4e227035 0.0 102421
08:00−4e226568 0.0 102539
11:00+2ese234131 0.0 1025424
14:00+5ese232969 0.0 1024705
17:00+6ese22300 0.0 102225
20:00+2ene22380 0.0 102522
24 january, sun
sun2423:00+1ese23450 0.0 102526
02:00−1ese23510 0.0 102430
05:00−2e23600 0.0 102521
08:00−3ene22613 0.0 102721
11:00+4ene223919 0.0 1027314
14:00+7ne1130100 0.0 1024616
17:00+7ene223792 0.0 102531
20:00+4ene224596 0.0 102722
25 january, mon
mon2523:00+3ne2245100 0.0 102722
02:00+2e2249100 0.0 102724
05:00+2ene0152100 0.1 102622
08:00+1nnw3470100 0.2 1026170
11:00+5ne0154100 0.0 1026414
14:00+1ese1195100 1.6 102489
17:00+3w1289100 0.0 1024277
20:00+4nnw1157100 0.0 102522
26 january, tue
tue2623:00+3se1263100 0.0 102522
02:00−1wnw118933 0.0 102721
05:00−2n11910 0.0 102621
08:000n22860 0.0 102822
11:00+7n46230 0.0 1029799
14:00+8sse45340 0.0 10261017
17:00+6sse34390 0.0 102593
20:00+4ese493190 0.0 1028269
27 january, wed
wed2723:00+2sse3545100 0.0 102590
02:00+2se3826100 0.0 1028168
05:00+2se1161100 0.0 102422
08:00+2ne1166100 0.0 102624
11:00+5sw344173 0.0 1027605
14:00+7ne443986 0.0 10251030
17:00+5ne573717 0.0 1025539
20:00+4nw464717 0.0 1023105